Погода в Никифорово

Россия / Республика Татарстан     55°50′45″N   50°53′25″E
В апреле 2022 года жителям России запретили посещать сайт meteo.paraplan.net по решению Генеральной прокуратуры. Аудитория сайта уменьшилась в 10 раз. Владельцы сайта не видят смысла в поддержке погодного сервера в таких условиях. Сайт будет закрыт в октябре.
темп.,
°C
ветер,
м/с
пор.,
м/с
влажн.,
%
обл.,
%
осадки,
мм/ч
давл.,
гПа
погр.,
м
29 сентября, чт
чт2900:00+2вюв91694100 3.2 1015461
03:00+3в81597100 6.6 1014409
06:00+5в81498100 4.7 1012415
09:00+7вюв71296100 4.9 1012499
12:00+6вюв71298100 5.0 1013438
15:00+6вюв71297100 8.5 1013437
18:00+6вюв61096100 1.0 1015396
21:00+5в5995100 1.8 1017337
30 сентября, пт
пт3000:00+5в4795100 0.5 1018308
03:00+5в479699 0.6 1020285
06:00+5в4695100 0.1 1021269
09:00+6в459166 0.1 1023315
12:00+8в448374 0.0 1024488
15:00+9в458191 0.0 1024573
18:00+8вюв4684100 0.0 1025364
21:00+7вюв3689100 0.0 1026280
1 октября, сб
сб100:00+7вюв3590100 0.0 1026207
03:00+6вюв3589100 0.0 1026193
06:00+6вюв3589100 0.0 1025177
09:00+9юв457899 0.0 1025357
12:00+12ююв446748 0.0 1024808
15:00+13ююв446552 0.0 1023855
18:00+9ююв338214 0.0 102237
21:00+8ююв3486100 0.0 102161
2 октября, вс
вс200:00+8ююв3685100 0.0 1020104
03:00+8ююв3885100 0.2 1019217
06:00+9ююв5129299 0.8 1018306
09:00+11ю61385100 0.8 1017397
12:00+14ю61378100 0.0 1016560
15:00+15ю71577100 0.0 1014583
18:00+14ю61584100 0.1 1013494
21:00+14ююз41289100 0.8 1013443
3 октября, пн
пн300:00+13ю51095100 3.9 1012303
03:00+13юз3799100 7.4 1012254
06:00+11ю5147463 0.0 1016333
09:00+15ю6116568 0.0 1016424
12:00+18ююз71062100 0.1 1017701
15:00+18ююз5106482 0.2 1018803
18:00+15ю512706 0.0 1019317
21:00+13ю51361100 0.0 1021305